Lid_Strength_Index
13 12 11 12 11 11 13 13 14 12 11 9 8 8 7 6 6 6 6 6 5 5 4 4 4 3 3 2 2 2 2 2 2 2 1 2 3 3 2 2 2 2 4 5
13 11 11 11 11 11 11 11 12 12 10 8 7 7 7 6 7 7 6 5 5 4 4 4 4 3 3 3 2 2 2 2 2 2 2 3 3 2 2 3 3 4 5 5
15 12 12 14 11 11 11 10 10 12 10 7 8 7 7 7 7 6 6 5 5 4 4 4 3 3 3 3 2 2 2 2 2 2 3 3 2 3 3 3 3 4 5 5
15 13 16 12 9 9 10 10 9 10 10 7 7 6 6 6 7 6 5 5 5 4 4 3 3 3 2 2 2 2 3 2 2 3 3 3 3 3 3 3 3 3 5 6
14 15 13 10 9 10 11 12 8 9 9 7 6 6 7 5 4 5 4 4 4 3 3 3 3 2 2 3 3 3 3 2 2 2 2 3 3 3 2 2 3 3 5 6
14 15 15 13 9 7 8 14 8 8 8 8 7 10 9 6 4 4 4 4 4 3 3 3 3 2 3 3 3 3 3 2 2 2 2 2 3 3 2 2 2 2 3 5
15 15 14 10 8 7 13 14 8 7 7 7 9 8 6 5 5 4 4 4 3 3 3 3 3 2 3 3 3 2 2 2 2 2 2 2 2 3 2 2 2 3 4 4
14 16 16 8 8 12 10 8 7 7 7 7 6 6 6 5 5 5 5 4 4 4 4 3 2 3 3 3 2 2 2 3 3 3 3 3 3 3 3 3 3 4 4 4
12 13 9 7 8 6 6 8 7 7 6 6 6 6 5 5 5 5 4 4 4 4 4 3 3 3 3 3 3 2 4 2 2 4 4 3 4 4 4 4 4 4 5 4
11 10 9 8 7 6 6 6 5 5 5 6 6 5 5 5 5 5 4 4 4 4 4 5 5 4 4 3 3 3 3 2 3 4 5 5 4 4 4 5 6 6 5 6
11 9 9 7 6 6 6 5 5 5 5 6 7 7 5 5 5 4 4 4 4 4 5 5 5 4 3 3 2 2 3 3 3 4 5 5 5 5 4 5 5 5 5 4
12 8 9 9 6 5 5 5 5 5 5 4 5 5 5 5 5 4 4 5 5 5 4 4 3 3 3 2 2 2 3 3 4 4 4 5 7 8 11 10 10 9 7 5
8 6 7 6 5 4 5 5 4 4 5 5 4 4 4 5 5 6 5 5 6 6 5 3 3 3 3 2 3 3 3 4 4 5 4 5 6 7 7 11 11 12 12 11
5 6 7 6 7 5 5 4 4 4 4 4 4 4 4 4 4 4 5 5 5 4 4 3 3 4 5 3 2 2 3 6 3 4 4 4 5 6 7 8 9 10 11 11
6 5 6 5 5 5 4 4 5 5 4 4 4 4 4 5 5 4 5 5 4 5 5 4 4 3 2 2 2 2 2 3 3 4 3 3 3 4 6 7 7 8 10 11
6 5 5 6 6 5 5 5 5 5 5 5 5 4 4 4 4 4 4 6 5 6 5 5 4 3 2 2 2 2 3 4 3 3 3 3 3 4 4 5 6 7 8 9
7 8 7 6 6 6 6 5 5 5 5 4 4 4 4 4 4 4 5 3 3 5 5 4 3 2 2 2 2 2 2 3 3 3 3 3 3 3 4 4 4 5 6 8
5 5 5 5 5 5 5 4 4 4 5 4 4 4 4 5 5 5 4 4 4 4 5 5 4 3 3 2 2 2 2 3 3 3 3 3 3 3 3 3 3 4 4 5
4 5 4 4 4 4 4 4 4 4 4 3 4 4 4 4 4 4 5 5 6 6 5 4 4 3 3 2 2 2 2 3 3 3 3 3 3 2 2 2 4 4 4 4
5 4 4 4 4 4 4 4 4 4 3 3 4 4 5 4 4 4 5 5 5 3 4 4 2 3 3 2 2 2 2 2 3 3 3 2 3 4 3 5 4 4 3 3
5 4 4 4 4 4 3 3 4 4 4 3 4 4 4 4 4 4 5 6 5 3 4 4 4 3 3 3 3 2 3 4 4 3 3 4 4 5 4 5 5 5 4 5
4 4 4 4 4 4 4 4 4 4 4 4 4 4 4 5 5 5 5 5 4 4 4 4 4 4 4 4 4 3 4 4 4 5 5 5 5 5 5 5 6 5 4 4
4 4 4 4 4 4 4 3 3 3 4 4 4 4 4 4 4 5 5 3 4 4 4 4 4 3 3 4 4 4 4 4 5 5 5 5 5 5 5 5 4 4 4 4
4 4 4 3 3 4 4 4 3 3 3 4 3 3 4 4 4 3 3 3 4 4 3 3 3 3 4 4 3 4 5 5 5 5 4 6 4 4 4 4 4 3 3 3
4 4 4 4 4 4 4 4 3 3 4 4 4 3 3 3 4 4 3 3 3 4 2 2 2 3 3 3 3 4 4 4 4 4 4 4 3 4 4 3 2 2 2 3
4 4 4 3 4 4 3 4 4 4 4 4 3 3 3 3 3 3 3 3 3 3 3 3 3 2 3 3 3 2 3 3 4 4 4 4 4 4 3 3 4 4 3 3
4 5 4 5 4 4 4 4 4 4 4 5 4 3 2 2 3 3 3 2 2 2 2 2 3 4 3 2 2 2 2 3 4 3 3 3 3 3 3 3 3 3 3 3